Location: Unspecified
(0.0000°N, 0.0000°E)
Time: 15:06:33
(UTC+00:00)

Courier 1B Rocket - Visible Passes

Search period start: 21 February 2019 00:00
Search period end: 03 March 2019 00:00
Orbit: 921 x 1202 km, 28.2° (Epoch: 20 February)

Date Brightness Start Highest point End Pass type
(mag) Time Alt. Az. Time Alt. Az. Time Alt. Az.
21 Feb 7.3 03:37:18 16° NNE 03:37:18 16° NNE 03:38:56 10° NNE visible
21 Feb 7.3 05:26:05 10° NNW 05:27:08 10° NNW 05:28:11 10° N visible
22 Feb 7.1 04:26:37 14° NNW 04:26:37 14° NNW 04:29:30 10° N visible
25 Feb 7.3 20:29:01 10° S 20:29:50 11° S 20:29:50 11° S visible
26 Feb 7.6 21:18:46 10° SSW 21:18:51 10° SSW 21:18:51 10° SSW visible
27 Feb 6.9 20:18:48 10° SSW 20:21:34 17° S 20:21:34 17° S visible
28 Feb 7.0 19:19:46 10° S 19:21:43 11° SSE 19:23:42 10° SE visible
28 Feb 7.3 21:09:33 10° SW 21:10:41 15° SSW 21:10:41 15° SSW visible
01 Mar 6.4 20:09:15 10° SSW 20:13:29 25° SSE 20:13:29 25° SSE visible
02 Mar 6.7 19:09:20 10° SSW 19:13:22 17° SSE 19:16:20 13° ESE visible
02 Mar 6.9 21:00:36 10° SW 21:02:42 22° SW 21:02:42 22° SW visible
